Charlottesville, VA

10:29 AM EDT on October 15, 2019 (GMT -0400)
Charlottesville-Albemarle

Weather History for KCHO - August, 2019

Change the Weather History Date:

Saturday, August 3, 2019

  Actual Average Record
Temperature  
Mean Temperature 79 °F 75 °F  
Max Temperature 89 °F 85 °F 101 °F (1930)
Min Temperature 68 °F 65 °F 52 °F (1976)
Degree Days  
Heating Degree Days 0 0  
Month to date heating degree days 0 0  
Since 1 June heating degree days 0 12  
Since 1 July heating degree days 0 1  
Cooling Degree Days 14 10  
Month to date cooling degree days 39 30  
Year to date cooling degree days 1107 660  
Since 1 June cooling degree days 821 574  
Growing Degree Days 28 (Base 50)    
Moisture  
Dew Point 68 °F    
Average Humidity 70    
Maximum Humidity 90    
Minimum Humidity 50    
Precipitation  
Precipitation T in 0.15 in 1.11 in (2003)
Month to date precipitation 0.22 0.43  
Year to date precipitation 25.52 24.95  
Sea Level Pressure  
Sea Level Pressure 30.02 in    
Wind  
Wind Speed 2 mph (SSW)    
Max Wind Speed 12 mph    
Max Gust Speed 13 mph    
Visibility 7 miles    
Events      
T = Trace of Precipitation, MM = Missing Value Source: NWS Daily Summary

Daily Weather History Graph

Daily Weather History Graph

Search for Another Location

Airport or City:

Astronomy

Aug. 03, 2019 Rise Set
Actual Time 6:18 AM EDT 8:21 PM EDT
Civil Twilight 5:48 AM EDT 8:50 PM EDT
Nautical Twilight 5:13 AM EDT 9:25 PM EDT
Astronomical Twilight 4:34 AM EDT 10:04 PM EDT
Moon 9:06 AM EDT (8/3) 10:28 PM EDT (8/3)
Length of Visible Light 15h 01m
Length of Day
14h 03m
Waxing Crescent, 10% of the Moon is Illuminated
Aug 3
Waxing Crescent
Aug 7
First Quarter
Aug 15
Full
Aug 23
Last Quarter
Aug 30
New

Hourly Weather History & Observations

Time (EDT) Temp. Heat Index Dew Point Humidity Pressure Visibility Wind Dir Wind Speed Gust Speed Precip Events Conditions
12:08 AM 73.0 °F - 68.0 °F 84% 30.09 in 10.0 mi Calm Calm - N/A   Mostly Cloudy
12:53 AM 73.9 °F - 68.0 °F 82% 30.06 in 10.0 mi Calm Calm - N/A   Scattered Clouds
1:53 AM 71.1 °F - 66.9 °F 87% 30.05 in 8.0 mi Calm Calm - N/A   Clear
2:53 AM 71.1 °F - 66.9 °F 87% 30.04 in 9.0 mi Calm Calm - N/A   Clear
3:53 AM 70.0 °F - 66.9 °F 90% 30.03 in 7.0 mi Calm Calm - N/A   Clear
4:53 AM 69.1 °F - 64.9 °F 87% 30.02 in 5.0 mi Calm Calm - N/A   Clear
5:48 AM 69.8 °F - 66.2 °F 88% 30.05 in 5.0 mi SSE 3.5 mph - N/A   Scattered Clouds
5:51 AM 69.8 °F - 66.2 °F 88% 30.06 in 2.5 mi Calm Calm - N/A   Mostly Cloudy
5:53 AM 69.1 °F - 66.0 °F 90% 30.04 in 2.0 mi Calm Calm - N/A   Mostly Cloudy
6:35 AM 68.0 °F - 64.9 °F 90% 30.06 in 2.0 mi Calm Calm - N/A   Mostly Cloudy
6:39 AM 68.0 °F - 64.9 °F 90% 30.06 in 0.8 mi Calm Calm - N/A   Mist
6:53 AM 69.1 °F - 66.0 °F 90% 30.04 in 3.0 mi Calm Calm - N/A   Mostly Cloudy
7:03 AM 69.1 °F - 66.0 °F 90% 30.05 in 4.0 mi Calm Calm - N/A   Scattered Clouds
7:29 AM 71.1 °F - 68.0 °F 90% 30.06 in 4.0 mi Calm Calm - N/A   Mostly Cloudy
7:49 AM 71.6 °F - 68.0 °F 88% 30.06 in 1.8 mi Calm Calm - N/A   Overcast
7:53 AM 71.1 °F - 68.0 °F 90% 30.04 in 1.2 mi Calm Calm - N/A   Overcast
8:00 AM 71.1 °F - 68.0 °F 90% 30.06 in 0.8 mi Calm Calm - N/A   Overcast
8:53 AM 73.0 °F - 69.1 °F 87% 30.05 in 1.0 mi Calm Calm - N/A   Overcast
9:00 AM 73.0 °F - 69.1 °F 87% 30.07 in 2.0 mi Calm Calm - N/A   Overcast
9:22 AM 75.0 °F - 69.1 °F 82% 30.06 in 5.0 mi Variable 3.5 mph - N/A   Haze
9:29 AM 75.0 °F - 69.1 °F 82% 30.06 in 5.0 mi Calm Calm - N/A   Haze
9:53 AM 77.0 °F - 70.0 °F 79% 30.04 in 10.0 mi Calm Calm - N/A   Mostly Cloudy
10:18 AM 78.1 °F - 70.0 °F 76% 30.06 in 10.0 mi Calm Calm - N/A   Partly Cloudy
10:53 AM 82.0 °F 85.9 °F 70.0 °F 67% 30.04 in 10.0 mi Calm Calm - N/A   Clear
11:53 AM 82.9 °F 86.5 °F 69.1 °F 63% 30.01 in 10.0 mi Variable 3.5 mph - N/A   Clear
12:17 PM 84.0 °F 88.4 °F 70.0 °F 63% 30.03 in 10.0 mi SSE 6.9 mph - N/A   Mostly Cloudy
12:31 PM 84.9 °F 89.4 °F 70.0 °F 61% 30.03 in 10.0 mi Calm Calm - N/A   Scattered Clouds
12:53 PM 84.9 °F 88.8 °F 69.1 °F 59% 30.01 in 10.0 mi SW 4.6 mph - N/A   Mostly Cloudy
1:53 PM 86.0 °F 90.1 °F 69.1 °F 57% 29.99 in 10.0 mi North - - N/A   Partly Cloudy
2:53 PM 88.0 °F 92.1 °F 69.1 °F 53% 29.96 in 10.0 mi SSW 6.9 mph - N/A   Scattered Clouds
3:53 PM 88.0 °F 90.7 °F 66.9 °F 49% 29.94 in 10.0 mi SSW 6.9 mph - N/A   Mostly Cloudy
4:53 PM 88.0 °F 92.1 °F 69.1 °F 53% 29.93 in 10.0 mi South 6.9 mph - N/A   Clear
5:53 PM 84.9 °F 88.2 °F 68.0 °F 57% 29.91 in 10.0 mi South 8.1 mph - N/A   Clear
6:53 PM 86.0 °F 88.8 °F 66.9 °F 53% 29.91 in 10.0 mi SSW 4.6 mph - N/A   Clear
7:53 PM 82.9 °F 86.5 °F 69.1 °F 63% 29.91 in 10.0 mi SSW 4.6 mph - N/A   Clear
8:53 PM 78.1 °F - 69.1 °F 74% 29.93 in 10.0 mi Calm Calm - N/A   Clear
9:53 PM 79.0 °F - 70.0 °F 74% 29.95 in 10.0 mi Calm Calm - N/A   Clear
10:53 PM 78.1 °F - 71.1 °F 79% 29.95 in 10.0 mi SW 3.5 mph - N/A   Mostly Cloudy
11:53 PM 77.0 °F - 71.1 °F 82% 29.95 in 10.0 mi Calm Calm - N/A   Mostly Cloudy